Juneau, WI

5:29 AM CST on December 13, 2017 (GMT -0600)
Dodge County

Weather History for KUNU - December, 2012

Change the Weather History Date:

Monday, December 31, 2012

  Actual Average Record
Temperature  
Mean Temperature 19 °F -  
Max Temperature 32 °F 26 °F 51 °F (2004)
Min Temperature 6 °F 14 °F -16 °F (1976)
Degree Days  
Heating Degree Days 46    
Moisture  
Dew Point 13 °F    
Average Humidity 75    
Maximum Humidity 86    
Minimum Humidity 64    
Precipitation  
Precipitation 0.00 in - - ()
Sea Level Pressure  
Sea Level Pressure 30.03 in    
Wind  
Wind Speed 11 mph (West)    
Max Wind Speed 20 mph    
Max Gust Speed 25 mph    
Visibility 10 miles    
Events      
Averages and records for this station are not official NWS values.
T = Trace of Precipitation, MM = Missing Value Source: NWS Daily Summary

Daily Weather History Graph

Daily Weather History Graph

Search for Another Location

Airport or City:

Trip Planner

Search our weather history database for the weather conditions in past years. The results will help you decide how hot, cold, wet, or windy it might be!

Date:

Astronomy

Dec. 31, 2012 Rise Set
Actual Time 7:27 AM CST 4:28 PM CST
Civil Twilight 6:55 AM CST 5:01 PM CST
Nautical Twilight 6:19 AM CST 5:37 PM CST
Astronomical Twilight 5:44 AM CST 6:12 PM CST
Moon 8:05 PM CST (12/31) 9:03 AM CST (12/31)
Length of Visible Light 10h 06m
Length of Day
9h 01m
Waning Gibbous, 90% of the Moon is Illuminated
Dec 31
Waning Gibbous
Jan 4
Last Quarter
Jan 11
New
Jan 18
First Quarter
Jan 26
Full

Hourly Weather History & Observations

Time (CST) Temp. Windchill Dew Point Humidity Pressure Visibility Wind Dir Wind Speed Gust Speed Precip Events Conditions
12:15 AM 28.4 °F 16.6 °F 21.2 °F 74% 29.94 in 10.0 mi SSW 16.1 mph - N/A   Clear
12:35 AM 30.2 °F 18.5 °F 21.2 °F 69% 29.94 in 10.0 mi SSW 17.3 mph - N/A   Clear
12:55 AM 30.2 °F 17.8 °F 21.2 °F 69% 29.94 in 10.0 mi SSW 19.6 mph - N/A   Clear
1:15 AM 30.2 °F 18.5 °F 21.2 °F 69% 29.93 in 10.0 mi SSW 17.3 mph 25.3 mph N/A   Clear
1:35 AM 32.0 °F 20.8 °F 21.2 °F 64% 29.93 in 10.0 mi SSW 17.3 mph - N/A   Clear
1:55 AM 30.2 °F 19.8 °F 21.2 °F 69% 29.92 in 10.0 mi SSW 13.8 mph - N/A   Clear
2:15 AM 30.2 °F 19.8 °F 21.2 °F 69% 29.93 in 10.0 mi SSW 13.8 mph - N/A   Clear
2:35 AM 30.2 °F 18.9 °F 21.2 °F 69% 29.93 in 10.0 mi SSW 16.1 mph 20.7 mph N/A   Clear
2:55 AM 28.4 °F 17.5 °F 21.2 °F 74% 29.93 in 10.0 mi SSW 13.8 mph - N/A   Clear
3:15 AM 28.4 °F 18.0 °F 21.2 °F 74% 29.92 in 10.0 mi SW 12.7 mph - N/A   Clear
3:35 AM 28.4 °F 17.5 °F 21.2 °F 74% 29.93 in 10.0 mi SW 13.8 mph - N/A   Clear
3:55 AM 28.4 °F 18.5 °F 21.2 °F 74% 29.94 in 10.0 mi SW 11.5 mph - N/A   Clear
4:15 AM 28.4 °F 18.5 °F 21.2 °F 74% 29.95 in 10.0 mi SW 11.5 mph - N/A   Clear
4:35 AM 28.4 °F 18.5 °F 21.2 °F 74% 29.94 in 10.0 mi SW 11.5 mph - N/A   Clear
4:55 AM 28.4 °F 19.1 °F 21.2 °F 74% 29.94 in 10.0 mi SW 10.4 mph - N/A   Clear
5:15 AM 26.6 °F 17.5 °F 19.4 °F 74% 29.95 in 10.0 mi SW 9.2 mph - N/A   Clear
5:35 AM 23.0 °F 12.4 °F 19.4 °F 86% 29.95 in 10.0 mi WSW 10.4 mph - N/A   Clear
5:55 AM 23.0 °F 13.9 °F 17.6 °F 80% 29.96 in 10.0 mi WSW 8.1 mph - N/A   Clear
6:15 AM 23.0 °F 13.9 °F 17.6 °F 80% 29.97 in 10.0 mi WSW 8.1 mph - N/A   Clear
6:55 AM 23.0 °F 14.7 °F 19.4 °F 86% 29.97 in 10.0 mi West 6.9 mph - N/A   Clear
7:15 AM 23.0 °F 15.8 °F 17.6 °F 80% 29.97 in 10.0 mi WSW 5.8 mph - N/A   Clear
7:35 AM 23.0 °F 14.7 °F 17.6 °F 80% 29.97 in 10.0 mi WSW 6.9 mph - N/A   Clear
7:55 AM 23.0 °F 17.0 °F 17.6 °F 80% 29.97 in 10.0 mi West 4.6 mph - N/A   Clear
8:15 AM 21.2 °F 16.4 °F 17.6 °F 86% 29.98 in 10.0 mi West 3.5 mph - N/A   Clear
8:35 AM 21.2 °F 14.9 °F 15.8 °F 80% 29.99 in 10.0 mi WNW 4.6 mph - N/A   Clear
8:55 AM 21.2 °F 12.6 °F 15.8 °F 80% 30.00 in 10.0 mi West 6.9 mph - N/A   Mostly Cloudy
9:15 AM 21.2 °F 12.6 °F 17.6 °F 86% 30.02 in 10.0 mi WNW 6.9 mph - N/A   Overcast
9:35 AM 21.2 °F 10.1 °F 17.6 °F 86% 30.02 in 10.0 mi NW 10.4 mph 16.1 mph N/A   Overcast
9:55 AM 21.2 °F 9.5 °F 15.8 °F 80% 30.03 in 10.0 mi NW 11.5 mph 17.3 mph N/A   Overcast
10:15 AM 21.2 °F 10.1 °F 15.8 °F 80% 30.04 in 7.0 mi NW 10.4 mph - N/A   Overcast
10:35 AM 21.2 °F 9.5 °F 15.8 °F 80% 30.04 in 7.0 mi WNW 11.5 mph - N/A   Overcast
10:55 AM 21.2 °F 10.1 °F 15.8 °F 80% 30.04 in 7.0 mi NW 10.4 mph - N/A   Overcast
11:15 AM 21.2 °F 11.7 °F 15.8 °F 80% 30.03 in 7.0 mi NW 8.1 mph - N/A   Overcast
11:35 AM 21.2 °F 12.6 °F 15.8 °F 80% 30.03 in 7.0 mi WNW 6.9 mph - N/A   Overcast
11:55 AM 21.2 °F 11.7 °F 15.8 °F 80% 30.02 in 7.0 mi NW 8.1 mph - N/A   Overcast
12:15 PM 21.2 °F 10.1 °F 14.0 °F 74% 30.02 in 7.0 mi NW 10.4 mph - N/A   Overcast
12:35 PM 21.2 °F 10.9 °F 14.0 °F 74% 30.02 in 10.0 mi WNW 9.2 mph - N/A   Overcast
12:55 PM 21.2 °F 11.7 °F 14.0 °F 74% 30.03 in 10.0 mi West 8.1 mph - N/A   Overcast
1:15 PM 19.4 °F 9.5 °F 14.0 °F 80% 30.03 in 10.0 mi West 8.1 mph - N/A   Overcast
1:35 PM 19.4 °F 9.5 °F 12.2 °F 74% 30.03 in 7.0 mi West 8.1 mph - N/A   Overcast
1:55 PM 19.4 °F 10.4 °F 12.2 °F 74% 30.04 in 10.0 mi West 6.9 mph - N/A   Overcast
2:15 PM 19.4 °F 10.4 °F 12.2 °F 74% 30.04 in 10.0 mi West 6.9 mph - N/A   Overcast
2:35 PM 19.4 °F 10.4 °F 12.2 °F 74% 30.04 in 10.0 mi West 6.9 mph - N/A   Overcast
2:55 PM 19.4 °F 14.3 °F 12.2 °F 74% 30.04 in 10.0 mi West 3.5 mph - N/A   Overcast
3:15 PM 19.4 °F 12.8 °F 10.4 °F 68% 30.05 in 10.0 mi West 4.6 mph - N/A   Overcast
3:35 PM 19.4 °F 14.3 °F 10.4 °F 68% 30.06 in 10.0 mi WNW 3.5 mph - N/A   Overcast
3:55 PM 19.4 °F 11.5 °F 10.4 °F 68% 30.05 in 10.0 mi NW 5.8 mph - N/A   Mostly Cloudy
4:15 PM 17.6 °F 10.7 °F 10.4 °F 73% 30.05 in 10.0 mi WNW 4.6 mph - N/A   Scattered Clouds
4:35 PM 15.8 °F 10.2 °F 8.6 °F 73% 30.06 in 10.0 mi WNW 3.5 mph - N/A   Clear
4:55 PM 15.8 °F 10.2 °F 8.6 °F 73% 30.07 in 10.0 mi WNW 3.5 mph - N/A   Clear
5:15 PM 14.0 °F - 8.6 °F 79% 30.08 in 10.0 mi Calm Calm - N/A   Clear
5:35 PM 14.0 °F 8.2 °F 8.6 °F 79% 30.08 in 10.0 mi WNW 3.5 mph - N/A   Scattered Clouds
6:15 PM 12.2 °F 2.9 °F 5.0 °F 73% 30.09 in 10.0 mi NW 5.8 mph - N/A   Clear
6:35 PM 12.2 °F 0.7 °F 5.0 °F 73% 30.09 in 10.0 mi NW 8.1 mph - N/A   Clear
6:55 PM 12.2 °F 1.7 °F 3.2 °F 67% 30.09 in 10.0 mi NW 6.9 mph - N/A   Clear
7:15 PM 12.2 °F 1.7 °F 3.2 °F 67% 30.09 in 10.0 mi NW 6.9 mph - N/A   Clear
7:35 PM 12.2 °F 2.9 °F 3.2 °F 67% 30.10 in 10.0 mi NW 5.8 mph - N/A   Clear
7:55 PM 10.4 °F -0.4 °F 3.2 °F 73% 30.11 in 10.0 mi NW 6.9 mph - N/A   Clear
8:15 PM 10.4 °F 4.0 °F 3.2 °F 73% 30.12 in 10.0 mi WNW 3.5 mph - N/A   Clear
8:35 PM 10.4 °F -0.4 °F 3.2 °F 73% 30.11 in 10.0 mi NW 6.9 mph - N/A   Clear
8:55 PM 10.4 °F -0.4 °F 1.4 °F 67% 30.11 in 10.0 mi NW 6.9 mph - N/A   Clear
9:15 PM 8.6 °F -2.6 °F 1.4 °F 73% 30.11 in 10.0 mi NW 6.9 mph - N/A   Clear
9:35 PM 8.6 °F -1.3 °F 1.4 °F 73% 30.12 in 10.0 mi NW 5.8 mph - N/A   Clear
9:55 PM 8.6 °F -1.3 °F 1.4 °F 73% 30.12 in 10.0 mi NW 5.8 mph - N/A   Clear
10:15 PM 8.6 °F -1.3 °F 1.4 °F 73% 30.13 in 10.0 mi NW 5.8 mph - N/A   Clear
10:35 PM 8.6 °F 2.0 °F 1.4 °F 73% 30.14 in 10.0 mi NW 3.5 mph - N/A   Clear
10:55 PM 6.8 °F -2.0 °F -0.4 °F 72% 30.15 in 10.0 mi NW 4.6 mph - N/A   Clear
11:15 PM 6.8 °F -3.5 °F -0.4 °F 72% 30.15 in 10.0 mi NNW 5.8 mph - N/A   Clear
11:35 PM 6.8 °F -3.5 °F -0.4 °F 72% 30.15 in 10.0 mi NNW 5.8 mph - N/A   Clear